Weather in Bolgatovo

Russia / Pskov Oblast     56°47′56″N   28°56′13″E
temp.,
°C
wind,
m/s
gust,
m/s
humid.,
%
clouds,
%
prec.,
mm/h
press.,
hPa
HPBL,
m
23 october, sat
sat2300:00+6sw71476100 0.0 9961419
03:00+6sw61283100 0.1 9951238
06:00+5wsw41083100 0.8 997794
09:00+4sw5128536 0.8 999768
12:00+4wsw51195100 0.4 1002904
15:00+5wsw61288100 1.1 10031266
18:00+3w51296100 2.4 1006761
21:00+3wnw51297100 3.3 1009826
24 october, sun
sun2400:00+2nw51094100 0.3 1013873
03:00+2nw5118498 0.4 1016906
06:00+1nw5118790 0.1 1018869
09:000nw4985100 0.1 1021915
12:00+2nw477593 0.0 10241028
15:00+3nw4770100 0.1 10251243
18:00+1nw267898 0.0 1027206
21:00−1wnw118428 0.0 102822
25 october, mon
mon2500:00−1sw2287100 0.0 102935
03:00−1ssw278395 0.0 1028169
06:000ssw4108899 0.0 1027303
09:00+2ssw41286100 0.0 1026431
12:00+4ssw411808 0.0 1026479
15:00+7sw511695 0.0 1024786
18:00+4ssw412775 0.0 1024415
21:00+3ssw413790 0.0 1023416
26 october, tue
tue2600:00+2ssw413820 0.0 1022404
03:00+2ssw41382100 0.0 1021372
06:00+2ssw41281100 0.0 1020379
09:00+2ssw41280100 0.0 1019415
12:00+6sw41170100 0.0 1018493
15:00+7sw4106868 0.0 1017608
18:00+5ssw31080100 0.0 1017275
21:00+4ssw41085100 0.0 1017336
27 october, wed
wed2700:00+4ssw31088100 0.1 1016341
03:00+5sw31094100 1.7 1015404
06:00+6sw3109893 0.6 1014438
09:00+7wsw3996100 0.8 1014487
12:00+8wsw4984100 0.1 1014774
15:00+7w498649 0.8 1014786
18:00+6w299471 0.3 1016256
21:00+5w399734 0.4 1018254